[[{"header":{"parameterUnit":"m.s-1","parameterCategory":1,"la1":30.2991,"la2":30.254,"lo1":-89.0895,"lo2":-89.0444,"dy":0.0017,"dx":0.0017,"nx":28,"ny":28,"refTime":"2023-09-09T21:00:00:Z","depth":0,"parameterNumber":2,"parameterNumberName":"U-component_of_WINDS"},"data":[0,0,0,0,0,0,0,0,0,0,0,0,0,0,0,0,0,0,0,0,0,0,0,0,0,0,0,0,0,0,0,0,0,0,0,0,0,0,0,0,0,0,0,0,0,0,0,0,0,0,0,0,0,0,0,0,0,0,0.8679,0.8679,0,0.8712,0.8713,0.8713,0.8716,0.8715,0.8715,0.8715,0.8748,0.8749,0.875,0,0,0,0,0,0,0,0,0,0,0,0,0,0.8615,0.8616,0.8679,0.8679,0.868,0.8712,0.8713,0.8713,0.8716,0.8715,0.8715,0.8715,0.8747,0.8749,0.875,0,0,0,0,0,0,0,0,0,0,0,0,0,0.8645,0.8617,0.8679,0.8685,0.8686,0.8712,0.8713,0.8713,0.8716,0.8715,0.8715,0.8714,0.8747,0.8749,0.8751,0.8773,0,0,0.8756,0.8757,0,0,0,0,0,0,0,0,0.8643,0.8647,0.8684,0.8685,0.8686,0.8709,0.8702,0.8733,0.8716,0.8705,0.8715,0.8714,0.8735,0.8738,0.8746,0.8774,0.8775,0.8756,0.8757,0.8758,0.8759,0,0,0,0,0,0,0,0.8641,0.8646,0.8692,0.8684,0.8685,0.8685,0.8689,0.8708,0.8723,0.8705,0.8706,0.871,0.8736,0.8744,0.8746,0.8776,0.8756,0.8758,0.8759,0.876,0.8822,0.8823,0,0,0,0,0,0,0.8638,0.8644,0.8691,0.8693,0.8663,0.8687,0.8691,0.8702,0.8722,0.8725,0.871,0.871,0.8741,0.8744,0.8748,0.8773,0.8758,0.876,0.8761,0.8822,0.8822,0.8823,0,0,0,0,0,0,0.8637,0.8642,0.869,0.8669,0.8675,0.8689,0.8701,0.8703,0.8711,0.8726,0.8728,0.8716,0.8741,0.8745,0.8766,0.8774,0.8761,0.8762,0.8821,0.8822,0.8823,0.8826,0,0,0,0,0,0,0.8635,0.8642,0.8651,0.8669,0.8676,0.8708,0.8702,0.8704,0.8714,0.8714,0.8732,0.8734,0.8741,0.8763,0.8768,0.8777,0.8764,0.882,0.8821,0.8822,0.8825,0.8826,0.8828,0,0,0,0,0,0.8633,0.8651,0.8651,0.8657,0.8688,0.8709,0.8712,0.872,0.8715,0.8724,0.8733,0.8734,0.8773,0.8765,0.877,0.878,0.882,0.8821,0.8822,0.8824,0.8826,0.8828,0,0,0,0,0,0,0.8633,0.8653,0.8654,0.8679,0.8692,0.8709,0.872,0.8722,0.8737,0.8736,0.8744,0.8748,0.8768,0.8776,0.8768,0.8802,0.8796,0.8798,0.8795,0.8797,0.8799,0.8796,0.8765,0,0,0,0,0,0.8636,0.8652,0.8668,0.8688,0.8695,0.8706,0.8716,0.872,0.8734,0.874,0.8751,0.8764,0.8779,0.8789,0.8804,0.8826,0.8829,0.8835,0.8837,0.8838,0.884,0.8851,0.8853,0.8827,0.8827,0.8827,0,0,0.8642,0.8655,0.8665,0.8688,0.8699,0.8715,0.8711,0.8728,0.8739,0.8742,0.8762,0.8771,0.8786,0.8807,0.8817,0.8815,0.8848,0.884,0.884,0.8842,0.8852,0.8855,0.8857,0.8828,0.8828,0.8828,0,0,0.8661,0.8673,0.869,0.8701,0.8717,0.8725,0.8729,0.8745,0.8751,0.8772,0.8774,0.8787,0.8813,0.8824,0.8832,0.8854,0.8854,0.8858,0.8866,0.8877,0.8879,0.8881,0.8887,0.8889,0.886,0.886,0.886,0,0.8666,0.869,0.8698,0.8715,0.8725,0.8728,0.8745,0.8755,0.8775,0.8781,0.8779,0.8811,0.8821,0.8844,0.8849,0.8857,0.8861,0.8856,0.8878,0.888,0.8882,0.8888,0.889,0.886,0.886,0.886,0.886,0,0.8695,0.8712,0.8723,0.8743,0.8754,0.877,0.878,0.879,0.8794,0.8801,0.8821,0.8834,0.8851,0.8857,0.886,0.888,0.8878,0.8876,0.8871,0.8884,0.889,0.8893,0.8861,0.8861,0.8861,0.8861,0,0,0.8715,0.8738,0.8742,0.875,0.8768,0.8781,0.8797,0.8814,0.8822,0.8836,0.8848,0.887,0.8869,0.8878,0.8883,0.8893,0.8907,0.889,0.889,0.8892,0.8928,0.8928,0.8931,0.8908,0.8908,0.8909,0.8926,0,0.8734,0.8764,0.8771,0.8795,0.881,0.8813,0.8827,0.8839,0.8846,0.8859,0.8867,0.8882,0.8879,0.8885,0.8895,0.8903,0.8914,0.8902,0.8919,0.8919,0.8914,0.8934,0.8935,0.8951,0.8929,0.8929,0.893,0,0.8761,0.8775,0.8801,0.8816,0.8823,0.8835,0.885,0.8863,0.8876,0.8881,0.8891,0.8895,0.8911,0.8905,0.8926,0.8918,0.8925,0.893,0.8931,0.8932,0.8925,0.8935,0.8956,0.8958,0.8934,0.8933,0.8933,0,0.8771,0.8797,0.8815,0.8823,0.8841,0.8849,0.8857,0.887,0.8879,0.8893,0.8898,0.8913,0.8921,0.8932,0.8939,0.8934,0.8959,0.8954,0.8963,0.8962,0.8967,0.8967,0.8989,0.8974,0.8974,0.8974,0.8974,0,0.8792,0.8807,0.882,0.8831,0.8848,0.8856,0.8873,0.888,0.8892,0.8904,0.8908,0.8919,0.8928,0.894,0.8946,0.8962,0.8966,0.8969,0.897,0.8969,0.8968,0.8973,0.8971,0.8974,0.8974,0.8974,0.8974,0,0.8805,0.8815,0.8835,0.8851,0.8855,0.8867,0.888,0.889,0.8897,0.8913,0.8917,0.8928,0.8942,0.8951,0.8969,0.8973,0.899,0.8992,0.8986,0.8986,0.8994,0.8992,0.9019,0.9023,0.9006,0.9006,0.9006,0,0.8817,0.8829,0.8846,0.8855,0.8863,0.8877,0.8886,0.8894,0.8903,0.8919,0.8927,0.8942,0.8954,0.8977,0.8987,0.9,0.9001,0.901,0.9003,0.9,0.9,0.8999,0.8999,0.901,0.901,0.9011,0.9011,0,0.8837,0.8841,0.8854,0.8869,0.888,0.8892,0.8904,0.8911,0.8921,0.8931,0.8946,0.8955,0.8974,0.8988,0.9002,0.901,0.9011,0.9013,0.9015,0.9013,0.9009,0.901,0.8988,0.9012,0.9012,0.9012,0.9012,0.9012,0.8849,0.8859,0.8873,0.8887,0.8897,0.8908,0.8918,0.8927,0.8939,0.8955,0.8959,0.8975,0.8987,0.9006,0.9014,0.9026,0.9024,0.9028,0.9029,0.9029,0.9029,0.9007,0.9028,0.9028,0.9028,0.9028,0.9028,0,0.8868,0.8876,0.889,0.8906,0.8917,0.8919,0.8932,0.8941,0.8954,0.8966,0.8978,0.8994,0.9008,0.9018,0.9032,0.9039,0.904,0.9042,0.9042,0.9043,0.903,0.9026,0.9041,0.9041,0.9041,0.9041,0.9041,0.9041,0.8879,0.8896,0.8901,0.8923,0.8931,0.8947,0.8954,0.8963,0.8972,0.8991,0.9002,0.9009,0.902,0.9034,0.9046,0.9049,0.9053,0.9055,0.9058,0.9046,0.9044,0.9043,0.9039,0.9056,0.9056,0.907,0.907,0.907]},{"header":{"parameterUnit":"m.s-1","parameterCategory":1,"la1":30.2991,"la2":30.254,"lo1":-89.0895,"lo2":-89.0444,"dy":0.0017,"dx":0.0017,"nx":28,"ny":28,"refTime":"2023-09-09T21:00:00:Z","depth":0,"parameterNumber":3,"parameterNumberName":"V-component_of_WINDS"},"data":[0,0,0,0,0,0,0,0,0,0,0,0,0,0,0,0,0,0,0,0,0,0,0,0,0,0,0,0,0,0,0,0,0,0,0,0,0,0,0,0,0,0,0,0,0,0,0,0,0,0,0,0,0,0,0,0,0,0,2.2443,2.2442,0,2.2396,2.2396,2.2395,2.2335,2.2334,2.2333,2.2332,2.2284,2.2284,2.2283,0,0,0,0,0,0,0,0,0,0,0,0,0,2.2478,2.2478,2.2443,2.2442,2.2442,2.2396,2.2396,2.2395,2.2335,2.2334,2.2332,2.2331,2.2284,2.2284,2.2283,0,0,0,0,0,0,0,0,0,0,0,0,0,2.2451,2.2478,2.2443,2.2406,2.2402,2.2397,2.2396,2.2395,2.2335,2.2333,2.2332,2.2331,2.2284,2.2284,2.2283,2.231,0,0,2.2282,2.2282,0,0,0,0,0,0,0,0,2.2452,2.2449,2.2412,2.2408,2.2404,2.237,2.2391,2.2367,2.2335,2.2361,2.2332,2.233,2.2314,2.2311,2.2305,2.2308,2.2306,2.2282,2.2281,2.2281,2.2281,0,0,0,0,0,0,0,2.2454,2.2451,2.2424,2.2411,2.2407,2.2392,2.2386,2.2386,2.2346,2.2358,2.2354,2.2349,2.2311,2.2306,2.2304,2.2305,2.2282,2.2281,2.2281,2.2281,2.2325,2.2327,0,0,0,0,0,0,2.2462,2.2453,2.2426,2.2423,2.2425,2.2392,2.2386,2.2382,2.2346,2.2339,2.235,2.2346,2.2308,2.2304,2.2302,2.2329,2.2281,2.2281,2.228,2.2324,2.2326,2.2327,0,0,0,0,0,0,2.2463,2.246,2.2428,2.2437,2.2431,2.2393,2.239,2.2382,2.2377,2.234,2.2333,2.2352,2.2306,2.2303,2.2308,2.2327,2.2281,2.228,2.2322,2.2324,2.2326,2.2385,0,0,0,0,0,0,2.2464,2.2461,2.247,2.2437,2.2431,2.2435,2.2391,2.2382,2.2376,2.237,2.234,2.2333,2.2305,2.2309,2.2308,2.2325,2.228,2.232,2.2323,2.2326,2.2381,2.2389,2.2396,0,0,0,0,0,2.2465,2.2489,2.2471,2.2468,2.2443,2.2436,2.2433,2.24,2.2378,2.2387,2.2363,2.2334,2.2325,2.231,2.2308,2.2326,2.2319,2.2322,2.2325,2.2378,2.2387,2.2395,0,0,0,0,0,0,2.2526,2.2484,2.2464,2.2478,2.2461,2.2426,2.2437,2.2411,2.24,2.2395,2.2355,2.2348,2.2358,2.2343,2.2327,2.2349,2.2318,2.2321,2.2358,2.2367,2.2374,2.2377,2.2279,0,0,0,0,0,2.254,2.2539,2.2503,2.2518,2.2511,2.2476,2.2472,2.2447,2.2428,2.2421,2.2398,2.238,2.2373,2.2369,2.2361,2.2379,2.2371,2.239,2.2397,2.2403,2.2406,2.2412,2.242,2.2338,2.2338,2.2338,0,0,2.2571,2.2548,2.255,2.253,2.2514,2.2512,2.247,2.2471,2.2469,2.2421,2.2424,2.2407,2.2384,2.2396,2.24,2.2383,2.2427,2.2408,2.2413,2.2412,2.2417,2.2424,2.2431,2.234,2.234,2.234,0,0,2.2626,2.2609,2.2619,2.2604,2.2581,2.2557,2.256,2.2529,2.2515,2.2518,2.2481,2.2479,2.2468,2.2453,2.2444,2.2493,2.2465,2.2491,2.2528,2.2535,2.2542,2.2547,2.2563,2.2569,2.2495,2.2495,2.2495,0,2.2666,2.2663,2.2628,2.263,2.2622,2.2579,2.2589,2.2576,2.2551,2.2546,2.2528,2.2513,2.2495,2.2501,2.2513,2.2508,2.2509,2.2494,2.2544,2.2549,2.2553,2.2568,2.2574,2.2498,2.2498,2.2497,2.2497,0,2.2714,2.2712,2.2723,2.27,2.2693,2.2699,2.2665,2.2662,2.2639,2.2617,2.2619,2.2596,2.2582,2.2582,2.2559,2.2585,2.2575,2.2551,2.2519,2.2565,2.2578,2.2583,2.2502,2.2501,2.25,2.25,0,0,2.2804,2.2761,2.2765,2.2754,2.2725,2.2722,2.2726,2.2712,2.271,2.2695,2.2696,2.2688,2.2665,2.2655,2.263,2.2636,2.2674,2.2611,2.261,2.2622,2.2699,2.2716,2.2723,2.2656,2.2657,2.2658,2.27,0,2.2851,2.2856,2.2824,2.2837,2.2834,2.2793,2.2796,2.2778,2.2758,2.2752,2.273,2.2723,2.2695,2.2688,2.2693,2.2669,2.2689,2.2665,2.2656,2.2656,2.2661,2.2729,2.2748,2.2788,2.2705,2.2706,2.2706,0,2.2907,2.2894,2.2907,2.2876,2.2874,2.2877,2.2861,2.2856,2.2835,2.282,2.2808,2.278,2.2781,2.2752,2.2751,2.2736,2.273,2.2718,2.2719,2.2715,2.2683,2.2726,2.2801,2.2806,2.2714,2.2713,2.2713,0,2.297,2.2956,2.296,2.2952,2.2917,2.292,2.2906,2.2883,2.2876,2.2862,2.2857,2.2844,2.2836,2.2825,2.2794,2.2776,2.2797,2.2765,2.2783,2.2784,2.2788,2.2788,2.2861,2.2787,2.2787,2.2787,2.2787,0,2.3025,2.3034,2.2988,2.2991,2.2999,2.2963,2.2972,2.2953,2.2933,2.2931,2.2895,2.2894,2.2853,2.2847,2.2823,2.2825,2.2823,2.2809,2.2802,2.2812,2.2813,2.2806,2.2802,2.2789,2.2788,2.2788,2.2788,0,2.3095,2.3065,2.3067,2.3034,2.3026,2.3033,2.3004,2.3005,2.2983,2.2981,2.2978,2.2943,2.2934,2.2902,2.2885,2.2868,2.2878,2.2866,2.2885,2.288,2.2899,2.2897,2.2969,2.2976,2.29,2.2901,2.2901,0,2.3132,2.3137,2.3104,2.3101,2.3088,2.3082,2.3075,2.3039,2.3033,2.3009,2.3013,2.3001,2.2989,2.2977,2.2949,2.2936,2.2922,2.2948,2.2919,2.2928,2.292,2.2919,2.2919,2.2954,2.2955,2.2955,2.2956,0,2.3199,2.3184,2.3175,2.316,2.3153,2.314,2.3125,2.3124,2.3084,2.3079,2.3069,2.306,2.3043,2.3031,2.3013,2.2997,2.297,2.2965,2.2968,2.2977,2.2987,2.298,2.29,2.2964,2.2963,2.2962,2.2962,2.2962,2.3252,2.3254,2.3231,2.3222,2.3207,2.3194,2.3193,2.317,2.3162,2.3145,2.3125,2.3117,2.3095,2.3068,2.3054,2.3047,2.3032,2.3037,2.3038,2.3039,2.3043,2.299,2.3044,2.3044,2.3043,2.3043,2.3043,0,2.3315,2.3299,2.3291,2.3271,2.3264,2.3239,2.3221,2.3216,2.321,2.3192,2.3181,2.317,2.3158,2.313,2.3115,2.3114,2.3101,2.3112,2.311,2.3107,2.3058,2.3056,2.3122,2.3122,2.3122,2.3122,2.3122,2.3122,2.3348,2.335,2.3332,2.3327,2.331,2.3302,2.3294,2.3281,2.3266,2.3255,2.3245,2.3227,2.3204,2.3187,2.3174,2.3166,2.3162,2.3176,2.3163,2.3118,2.311,2.3103,2.3101,2.3176,2.3176,2.3212,2.3213,2.3213]}]]